Location: York
(31.8935°S, 116.7682°E)
Time: 16:15:49
(UTC+08:00)

Vanguard 1 Rocket - Visible Passes

Search period start: 25 September 2022 00:00
Search period end: 05 October 2022 00:00
Orbit: 651 x 4224 km, 34.3° (Epoch: 24 September)

Date Brightness Start Highest point End Pass type
(mag) Time Alt. Az. Time Alt. Az. Time Alt. Az.
25 Sep 11.6 19:22:58 10° W 19:36:50 18° NW 19:48:47 10° NNW visible
26 Sep 11.5 18:03:10 10° W 18:23:30 31° NW 18:41:15 10° N visible
27 Sep 11.8 19:30:38 10° WNW 19:38:28 12° NW 19:45:45 10° NW visible
28 Sep 11.7 18:07:09 10° W 18:25:02 24° NW 18:41:23 10° N visible
30 Sep 11.9 18:12:15 10° W 18:26:44 18° NW 18:40:29 10° NNW visible
02 Oct 12.0 18:19:54 10° WNW 18:28:37 13° NW 18:37:10 10° NNW visible
